CAPE
2727 2800 2560 2008 1579 1514 1527 1671 1583 1541 1628 1569 1625 1661 1532 1652 1631 1766 1607 1572 2033 2206 2214 2197 2206 2185 2438 2549 2457 2204 1815 1841 2239 1889 1553 1291 1289 1186 870 784 667 674 787 741 631 755 904 1172 1559 2074 2312 2274 2052 2146 2045 2200 2491 2545 2654 2344 1725 1585 1542 1213 882 953 566 0 41 239 291 390 327 446
2880 3090 2659 2241 2418 1694 1799 1828 1804 1794 1644 1802 2034 2049 2386 2426 2109 1994 1999 2034 2046 2352 2353 2415 2484 2529 2636 2603 2421 2158 1897 1827 1778 1567 1497 1524 1268 924 792 758 753 583 708 738 615 781 942 1087 1424 1449 1402 1350 1299 1266 1426 1762 2227 2444 2412 2385 1580 1470 1450 1194 832 853 783 0 0 72 196 288 443 485
2847 2707 2548 2368 2656 2619 1966 1832 1974 1964 2170 2573 3281 3218 2942 3382 3119 2240 2293 2210 2384 2788 2654 2567 2688 2785 2713 2563 2315 2066 1942 1861 1784 1632 1627 1652 1531 1027 682 624 800 813 687 569 497 920 1244 1410 1562 1467 1580 1591 1674 1706 1692 1516 1881 2274 2360 2289 1539 1317 1310 1150 875 763 809 296 0 0 0 256 462 424
3089 2836 2556 2567 3083 2619 2513 2396 2248 2254 2402 3248 3319 2849 2667 2979 3669 3296 2788 2488 2438 2564 2720 2818 2852 2715 2614 2510 2180 2032 1937 1850 1808 1844 1866 1749 1486 885 580 1054 1270 1115 953 655 846 1550 1698 1757 1602 1764 1898 1899 1857 1868 1930 1888 1734 2243 2102 2247 1668 1162 1095 1066 855 722 755 609 0 0 0 46 131 251
2880 2912 2677 2516 2734 2808 2435 2306 2020 1865 2149 2511 2613 2524 2481 2416 2975 3383 2891 2845 2763 2710 2624 2740 2630 2480 2463 2212 2031 1972 1913 1895 1913 1962 1850 1497 1119 1397 1957 1913 1671 1512 1303 1392 1829 2054 2049 1863 1914 1888 1789 2182 2248 2134 2066 2044 1969 1802 1959 2014 1648 1115 924 904 805 684 641 685 0 0 0 0 0 87
3024 3147 3077 2939 2686 2851 2720 2632 2379 2242 2060 1601 1747 1641 1893 1957 2352 3305 3359 3122 2990 2664 2463 2388 2400 2385 2213 2099 2017 2022 2020 1996 2023 1828 1492 1621 1844 2159 2219 2128 2008 2134 2142 2134 2242 2314 2133 2124 1873 1678 1828 2422 2531 2484 2345 2261 2116 1936 1472 1469 1549 1231 872 730 707 634 579 631 155 0 0 0 0 0
2852 3073 2947 2774 2767 2818 2664 2509 2392 2228 2144 1762 1679 1456 1950 2584 2847 3102 3190 2935 2687 2530 2353 2473 2372 2158 2071 2112 2080 2010 1949 1913 1571 1637 1766 1840 1961 2105 2113 1994 1960 2061 2228 2379 2390 2389 2303 2061 1777 1750 2124 2379 2537 2583 2480 2325 2097 1915 1589 875 976 1167 1258 60 0 0 0 0 0 0 0 0 0 0
2505 2381 2072 2087 2099 1985 2298 2347 2325 2033 1944 1812 1683 1785 1801 1586 1792 2369 2622 3077 2864 2685 2523 2392 2243 2170 2139 2092 1887 1777 1455 1444 1873 2088 1956 1810 1817 1917 1906 1865 1889 1910 2071 2301 2381 2366 2233 1942 1716 1825 2012 2240 2399 2424 2310 2237 2176 1992 1681 874 1040 1167 1328 876 0 0 0 0 0 0 0 0 0 0
2643 2419 2313 2191 2214 1966 1945 2103 1929 1856 1806 1638 1604 1968 1992 1889 1619 2078 2504 2402 2660 2731 2652 2456 2245 2176 1872 1708 1644 1608 1732 1798 2189 2094 1918 1718 1756 1894 1885 1829 1854 1849 1984 2210 2266 2246 2011 1741 1688 1786 1945 2178 2283 2213 2153 2228 2167 1819 1598 985 1128 1187 1303 1202 445 0 0 0 0 0 0 0 0 0
2069 1836 1791 2107 2324 2124 1855 1677 1472 1416 1643 1912 1589 1491 1434 1344 1646 1540 1555 2074 2559 2576 2281 2213 2025 1724 1671 1952 1834 1771 1971 2198 2286 2167 1963 1787 1788 1923 1895 1793 1769 1775 1899 2069 2097 1965 1847 1794 1764 1811 1914 2165 2114 2020 1917 1828 1634 1433 1329 1101 1214 1249 1314 1420 1332 621 0 0 0 0 0 0 0 0
1645 1641 1629 1531 1704 1796 1628 1311 1274 1332 1593 1588 1434 1425 1320 1472 1773 2022 2032 2309 2314 2012 1906 1803 1684 1757 2047 1900 1580 1561 2056 2284 2328 2299 2159 2002 1899 1898 1820 1710 1518 1483 1658 1892 1926 1878 1809 1754 1807 1894 2001 1978 2033 2099 1941 1650 1444 1163 1176 1228 1291 1330 1334 1396 1518 1428 735 0 0 0 0 0 0 0
1373 1440 1451 1366 1266 1300 1215 979 849 876 1278 1509 1328 1326 1476 2200 2321 2220 1935 1902 2007 1856 1660 1635 1849 2086 1881 1422 1238 1406 2004 2322 2409 2496 2340 2103 1987 1904 1684 1436 1244 1436 1878 2002 1922 1797 1707 1800 1909 2031 2001 1784 1924 1984 2002 1922 1822 1433 1423 1424 1473 1414 1348 1391 1566 1553 1425 1049 0 0 0 0 0 0
1189 1128 956 930 1114 1412 2977 3206 3072 2257 1802 1240 1049 1530 2403 2150 1792 1639 2200 2164 1821 1553 1658 1771 1766 1520 1163 1117 1168 1328 1949 2235 2545 2607 2355 2098 1942 1755 1409 1120 1243 1703 1913 1996 1962 1800 1862 2018 2023 1985 1819 1654 2170 1844 1872 1830 1803 1864 1719 1590 1587 1464 1360 1453 1610 1604 1606 1539 1324 514 0 0 0 0
1240 1317 1227 1380 2598 3027 3332 3451 3392 4019 4196 4669 3460 2470 2061 1692 1579 1599 1699 1413 1309 1595 1598 1310 1113 1155 1286 1315 1303 1461 1761 2078 2576 2474 2148 1860 1637 1340 1135 1250 1312 1754 1901 2014 1998 1841 2013 2043 1980 1861 1683 1562 1617 1747 1776 1942 1983 1813 1705 1660 1521 1409 1343 1531 1641 1611 1574 1552 1555 1462 1044 0 0 0
1442 1390 1392 1420 2264 3429 3914 3011 2845 3051 3199 3751 3850 3520 3931 3701 1458 1361 1054 864 1000 1490 1688 1950 1922 1917 1743 1554 1540 1679 1823 2085 2511 2186 1780 1433 1170 1040 1232 1461 1509 1543 1921 2035 1987 1935 1920 1906 1762 1509 1438 1414 1526 1626 1777 1956 2216 2048 1829 1455 1396 1363 1477 1588 1599 1650 1622 1635 1621 1592 1506 1383 942 0
1146 931 832 841 814 1091 977 1481 1283 1427 2777 3188 3629 3495 2984 2437 3047 1685 1614 2232 2300 2293 2378 2437 2317 1985 1725 1486 1561 1675 1766 2140 2148 1350 815 808 929 1296 1329 1530 1614 1620 1824 1978 1988 2010 1604 1726 1468 1120 1112 1238 1396 1748 1896 1914 2049 1973 1913 1855 1768 1706 1679 1634 1628 1666 1676 1685 1716 1677 1601 1603 1589 1417
1025 863 888 801 666 1713 3415 2254 1421 1276 2083 2940 3857 3398 3572 3832 3371 2206 2359 2405 2432 2638 2710 2528 2231 1885 1561 1434 1526 1662 1950 2076 1440 520 170 256 796 1127 1242 1537 1683 1702 1756 1910 2013 1968 1564 1536 1275 945 908 1049 1681 1775 1740 1764 1754 1705 1592 2050 2058 2091 2116 1956 1831 1736 1755 1783 1763 1753 1715 1661 1655 1642
961 876 722 678 799 915 829 931 843 977 2201 2673 2395 2320 2276 2333 3006 3749 3758 3390 3131 3053 2819 2453 1903 1502 1460 1373 1383 1582 1660 1160 395 118 49 94 275 444 899 1550 1821 1783 1766 1933 1880 1435 1029 1377 1150 880 867 1464 1813 1665 1574 1547 1428 1878 1878 1901 1910 1925 1958 1975 1968 1940 1804 1824 1827 1808 1771 1733 1687 1680
962 939 941 788 740 730 742 742 1002 1201 1550 2144 2424 2341 2266 2042 1958 1996 2146 2877 3160 2642 2037 1742 1522 1324 1089 1004 897 459 32 7 28 62 43 90 340 813 1218 1645 1750 1717 1473 1862 1745 1234 1013 1255 968 810 880 1090 1408 1370 1264 1203 1665 1964 1965 1913 1868 1800 1781 1762 1735 1808 1854 1826 1799 1733 1660 1679 1706 1713
1060 1136 1165 938 883 868 849 770 944 1364 1728 2031 2262 2342 2276 2179 2033 1887 1794 1974 1830 1772 1637 1628 1424 1038 882 851 335 45 0 45 413 410 341 298 520 1358 1522 1300 1453 1349 1096 1473 1224 602 585 950 839 758 730 790 970 1528 1379 1135 1293 1687 1639 1294 955 668 1360 1413 1442 1301 1274 1347 1521 1696 1833 1898 1832 1732
1532 1370 1251 1168 1081 1132 1158 1088 1097 1250 1437 1613 1817 2044 2214 2231 2109 1759 1454 1226 1215 1212 1173 1103 862 848 873 617 109 0 968 1264 939 612 561 695 1406 1256 932 999 971 676 1000 853 539 72 160 282 580 464 395 525 915 1385 1394 1207 1084 1158 139 0 0 0 0 490 667 440 334 1001 1478 1569 1691 1863 1946 1958
1296 1735 2019 1465 1409 1449 1478 1461 1418 1398 1459 1529 1617 1667 1618 1415 1309 1260 1087 973 920 908 921 875 762 762 459 176 121 224 1055 1089 882 747 643 616 1133 593 594 412 438 491 941 426 15 0 4 81 159 185 316 650 1016 1385 1345 1163 1034 1162 551 59 8 0 0 0 0 0 0 406 1168 1400 1487 1638 1766 1917
1094 1090 1116 1296 1322 1311 1384 1374 1384 1424 1466 1454 1378 1261 1134 1002 905 760 669 650 586 520 508 498 404 263 171 140 85 313 706 812 613 504 446 893 338 222 172 88 39 205 283 102 0 0 0 41 12 49 344 503 894 1261 1108 925 856 1132 466 100 59 1 0 0 0 0 108 815 1310 1394 1434 1434 1699 1862
1069 1014 948 897 883 910 1004 1005 893 817 853 858 857 832 760 743 808 522 445 372 328 310 295 255 190 186 172 120 1 425 615 831 878 241 610 308 194 152 90 72 13 3 20 0 0 0 0 12 3 12 249 441 596 423 643 552 690 844 267 58 0 0 0 0 0 0 408 888 1114 1468 1669 1841 1912 1988
1014 940 860 768 720 705 650 646 629 601 599 604 634 694 640 556 439 341 302 260 223 217 203 206 222 211 95 12 0 14 18 170 196 184 218 59 78 99 11 0 0 0 0 0 0 0 0 0 0 2 17 172 254 113 110 142 202 253 44 5 0 0 0 0 0 0 0 408 984 1255 1305 1337 1405 1416
720 706 651 615 554 557 583 583 577 551 505 544 555 526 459 423 348 292 229 189 183 215 250 229 182 114 0 0 0 35 14 57 186 108 252 149 113 115 7 0 0 0 0 0 0 0 0 0 0 0 0 0 0 0 0 0 5 0 0 0 0 0 0 0 0 0 0 0 439 691 760 754 838 832
553 531 526 494 484 464 414 385 388 375 388 420 434 411 425 418 402 338 267 201 171 174 175 179 133 30 0 10 8 3 14 34 61 117 288 110 15 32 2 34 0 0 0 0 0 0 0 0 0 0 0 0 0 0 0 0 0 0 0 0 0 0 0 0 0 0 0 0 0 0 179 381 417 404
383 402 422 412 393 379 354 323 285 251 230 228 230 228 319 352 342 291 239 205 175 145 128 145 34 0 12 19 22 13 26 35 10 46 270 84 13 1 0 0 0 0 0 0 0 0 0 0 0 0 0 0 0 0 0 0 0 0 0 0 0 0 0 0 0 0 0 0 0 0 0 0 0 0
303 355 336 332 285 265 284 261 248 234 222 224 219 219 214 213 244 249 234 218 187 165 159 77 0 0 33 59 24 7 0 60 0 77 114 12 0 0 0 0 0 0 0 0 0 0 0 0 0 0 0 0 0 0 0 0 0 0 0 0 0 0 0 0 0 0 0 0 0 0 0 0 0 0
268 269 264 228 240 232 199 176 151 144 156 160 181 157 132 138 162 197 214 216 222 192 54 0 2 62 106 27 7 139 29 0 0 46 72 0 0 0 0 0 0 0 0 0 0 0 0 0 0 0 0 0 0 0 0 0 0 0 0 0 0 0 0 0 0 0 0 0 0 0 0 0 0 0
196 188 176 191 187 157 93 118 145 131 150 154 107 67 65 94 135 163 180 162 99 0 0 3 11 88 14 1 0 0 0 0 0 79 21 0 0 0 0 0 0 0 0 0 0 0 0 0 0 0 0 0 0 0 0 0 0 0 0 0 0 0 0 0 0 0 0 0 0 0 0 0 0 0
189 157 148 119 41 0 0 15 102 142 109 100 0 0 0 10 8 90 128 66 0 0 0 0 0 0 0 0 0 0 0 0 0 0 0 0 0 0 0 0 0 0 0 0 0 0 0 0 0 0 0 0 0 0 0 0 0 0 0 0 0 0 0 0 0 0 0 0 0 0 0 0 0 0
86 70 19 0 0 0 0 0 98 109 86 0 0 0 0 0 0 0 0 0 0 0 0 0 0 0 0 0 0 0 0 0 0 0 0 0 0 0 0 0 0 0 0 0 0 0 0 0 0 0 0 0 0 0 0 0 0 0 0 0 0 0 0 0 0 0 0 0 0 0 0 0 0 0
0 7 9 5 0 0 0 19 17 60 0 0 0 0 0 0 0 0 0 0 0 0 0 0 0 0 0 0 0 0 0 0 0 0 0 0 0 0 0 0 0 0 0 0 0 0 0 0 0 0 0 0 0 0 0 0 0 0 0 0 0 0 0 0 0 0 0 0 0 0 0 0 0 0
0 0 0 0 0 0 0 0 0 0 0 0 0 0 0 0 0 0 0 0 0 0 0 0 0 0 0 0 0 0 0 0 0 0 0 0 0 0 0 0 0 0 0 0 0 0 0 0 0 0 0 0 0 0 0 0 0 0 0 0 0 0 0 0 0 0 0 0 0 0 0 0 0 0
0 0 0 0 0 0 0 0 0 0 0 0 0 0 0 0 0 0 0 0 0 0 0 0 0 0 0 0 0 0 0 0 0 0 0 0 0 0 0 0 0 0 0 0 0 0 0 0 0 0 0 0 0 0 0 0 0 0 0 0 0 0 0 0 0 0 0 0 0 0 0 0 0 0
0 0 0 0 0 0 0 0 0 0 0 0 0 0 0 0 0 0 0 0 0 0 0 0 0 0 0 0 0 0 0 0 0 0 0 0 0 0 0 0 0 0 0 0 0 0 0 0 0 0 0 0 0 0 0 0 0 0 0 0 0 0 0 0 0 0 0 0 0 0 0 0 0 0
0 0 0 0 0 0 0 0 0 0 0 0 0 0 0 0 0 0 0 0 0 0 0 0 0 0 0 0 0 0 0 0 0 0 0 0 0 0 0 0 0 0 0 0 0 0 0 0 0 0 0 0 0 0 0 0 0 0 0 0 0 0 0 0 0 0 0 0 0 0 0 0 0 0
0 0 0 0 0 0 0 0 0 0 0 0 0 0 0 0 0 0 0 0 0 0 0 0 0 0 0 0 0 0 0 0 0 0 0 0 0 0 0 0 0 0 0 0 0 0 0 0 0 0 0 0 0 0 0 0 0 0 0 0 0 0 0 0 0 0 0 0 0 0 0 0 0 0
0 0 0 0 0 0 0 0 0 0 0 0 0 0 0 0 0 0 0 0 0 0 0 0 0 0 0 0 0 0 0 0 0 0 0 0 0 0 0 0 0 0 0 0 0 0 0 0 0 0 0 0 0 0 0 0 0 0 0 0 0 0 0 0 0 0 0 0 0 0 0 0 0 0
0 0 0 0 0 0 0 0 0 0 0 0 0 0 0 0 0 0 0 0 0 0 0 0 0 0 0 0 0 0 0 0 0 0 0 0 0 0 0 0 0 0 0 0 0 0 0 0 0 0 0 0 0 0 0 0 0 0 0 0 0 0 0 0 0 0 0 0 0 0 0 0 0 0
0 0 0 0 0 0 0 0 0 0 0 0 0 0 0 0 0 0 0 0 0 0 0 0 0 0 0 0 0 0 0 0 0 0 0 0 0 0 0 0 0 0 0 0 0 0 0 0 0 0 0 0 0 0 0 0 0 0 0 0 0 0 0 0 0 0 0 0 0 0 0 0 0 0
0 0 0 0 0 0 0 0 0 0 0 0 0 0 0 0 0 0 0 0 0 0 0 0 0 0 0 0 0 0 0 0 0 0 0 0 0 0 0 0 0 0 0 0 0 0 0 0 0 0 0 0 0 0 0 0 0 0 0 0 0 0 0 0 0 0 0 0 0 0 1 1 0 1
0 0 0 0 0 0 0 0 0 0 0 0 0 0 0 0 0 0 0 0 0 0 0 0 0 0 0 0 0 0 0 0 0 0 0 0 0 0 0 0 0 0 0 0 0 0 0 0 0 0 0 0 0 0 0 0 0 0 0 0 0 0 0 0 0 0 0 0 0 0 0 0 0 0
0 0 0 0 0 0 0 0 0 0 0 0 0 0 0 0 0 0 0 0 0 0 0 0 0 0 0 0 0 0 0 0 0 0 0 0 0 0 0 0 0 0 0 0 0 0 0 0 0 0 0 0 0 0 1 0 0 0 0 0 0 0 0 0 0 0 0 0 0 0 0 0 0 0
Wind_Speed
5 6 5 2 0 0 1 2 1 1 2 2 4 5 5 6 5 3 4 3 4 3 6 6 5 4 2 2 3 4 5 6 6 6 7 7 7 8 8 6 4 2 0 2 3 1 1 3 7 10 12 12 10 17 20 22 22 23 24 26 28 27 25 25 24 23 23 nan nan 20 19 25 26 26
4 5 4 5 2 2 2 0 1 3 2 3 4 3 4 6 5 5 4 1 4 3 4 8 7 4 3 5 5 7 7 6 5 6 6 6 7 8 8 5 4 2 1 2 3 2 2 1 4 7 9 11 10 14 21 23 24 25 25 27 29 28 27 25 25 24 24 nan nan nan 21 22 27 26
4 5 4 5 4 4 2 2 3 3 4 3 4 4 5 5 6 7 7 5 3 7 5 6 8 8 8 7 8 8 7 5 4 6 5 5 6 7 6 5 5 2 2 0 3 3 3 2 0 2 6 8 10 11 19 24 26 26 26 28 29 28 27 26 26 25 25 24 nan nan nan 21 25 26
5 5 6 5 4 4 3 3 3 3 3 4 4 5 6 6 7 8 8 7 4 6 7 5 5 6 8 7 8 6 5 4 2 6 5 5 5 6 6 3 3 2 4 1 2 2 3 4 2 1 4 6 8 9 17 24 26 27 27 28 29 29 29 28 27 27 25 25 nan nan nan nan 18 18
4 4 4 4 4 5 6 6 8 6 5 5 5 6 6 6 7 9 8 7 4 4 7 7 7 4 6 6 8 6 5 4 4 3 6 5 6 7 6 5 2 1 0 2 1 3 4 4 1 1 4 5 7 8 11 18 25 27 27 27 29 30 30 29 27 28 27 25 nan nan nan nan nan nan
4 4 3 3 4 3 4 6 8 7 6 7 6 5 7 5 6 9 10 8 9 5 6 4 5 5 7 6 5 6 4 3 4 4 5 6 8 8 7 6 7 3 4 2 2 3 4 3 1 1 4 5 6 7 9 14 22 26 27 27 28 29 30 29 28 27 27 26 25 nan nan nan nan nan
4 3 1 1 1 1 2 3 5 6 5 5 7 5 7 6 6 8 10 10 8 6 4 6 5 6 6 6 4 4 5 6 8 8 8 8 8 9 9 8 8 4 1 1 1 1 2 2 3 4 5 5 4 4 8 12 18 23 25 26 27 28 29 nan nan nan nan nan nan nan nan nan nan nan
2 2 1 2 1 3 3 2 4 5 6 5 5 4 4 6 5 7 9 9 9 8 5 5 6 5 5 5 6 6 6 7 7 10 10 9 8 8 8 8 7 4 1 1 2 1 2 2 3 3 3 4 5 2 6 12 16 20 23 25 26 28 28 28 nan nan nan nan nan nan nan nan nan nan
3 3 3 5 8 8 8 8 9 7 6 3 5 4 4 5 6 8 9 8 9 7 4 3 5 5 6 7 6 9 10 8 9 10 10 9 10 8 8 6 5 2 1 1 2 1 1 3 3 2 2 2 3 2 4 9 14 17 21 24 25 26 27 27 27 nan nan nan nan nan nan nan nan nan
12 11 10 9 7 10 10 9 8 8 4 2 4 4 4 6 7 8 7 8 9 9 8 8 4 6 6 6 7 7 10 10 10 9 9 10 11 9 6 6 6 5 4 4 5 5 3 3 3 2 2 1 0 1 2 5 8 14 19 22 23 23 25 27 27 26 nan nan nan nan nan nan nan nan
15 12 11 10 10 10 12 12 10 9 6 5 5 7 7 7 8 8 8 11 12 11 9 8 8 6 6 9 7 6 9 12 14 12 10 10 12 12 10 5 7 7 3 1 2 4 3 2 5 4 4 4 5 6 7 8 9 11 16 20 21 21 23 25 27 26 25 nan nan nan nan nan nan nan
14 14 12 12 12 11 11 13 12 12 9 8 7 8 10 12 13 11 11 12 13 12 11 10 8 9 8 8 9 9 10 10 10 13 15 11 10 10 10 10 9 10 8 4 5 6 6 7 7 9 9 8 9 10 12 13 12 10 13 17 19 20 21 23 25 26 25 24 nan nan nan nan nan nan
17 17 16 16 14 13 10 9 10 11 11 11 9 10 13 14 15 14 14 13 13 13 13 9 10 10 8 8 9 8 11 11 9 10 14 13 12 13 10 5 10 14 13 8 7 7 9 7 7 8 9 10 10 10 12 11 9 7 8 15 17 19 21 22 23 25 25 24 23 22 nan nan nan nan
19 18 18 18 14 13 11 10 9 12 14 14 15 14 15 15 17 16 15 13 13 13 11 9 10 9 8 8 9 10 10 10 11 11 12 11 10 13 14 8 10 11 17 12 9 7 10 10 8 10 10 10 10 10 11 10 8 6 3 10 16 18 21 22 23 23 24 24 23 22 21 nan nan nan
20 21 21 21 19 18 17 19 19 16 16 16 15 16 14 15 18 19 17 15 14 14 13 12 12 12 10 8 10 10 8 10 11 11 11 11 11 13 13 11 6 15 18 15 12 9 11 13 11 11 11 10 10 10 10 10 12 13 10 7 13 17 19 21 22 23 23 23 22 21 21 20 20 nan
23 22 21 22 24 25 23 23 23 21 20 18 16 15 17 17 17 19 20 17 16 15 14 12 12 14 12 12 11 10 11 9 11 11 11 12 12 11 12 11 10 9 15 15 14 11 13 14 13 12 11 11 11 10 9 12 13 16 16 15 11 13 16 17 19 21 22 21 21 20 20 20 20 20
25 25 25 24 27 27 28 29 26 24 22 21 21 19 18 17 17 15 14 16 17 19 18 16 13 16 16 15 14 15 13 14 13 13 12 12 12 13 11 10 10 7 13 15 15 14 13 15 13 12 10 11 11 11 11 12 14 15 17 17 15 12 12 14 15 16 17 19 19 19 19 19 19 19
27 28 27 26 28 30 31 30 29 26 25 24 23 23 22 20 18 15 13 14 15 19 19 19 18 17 20 17 16 13 14 13 12 13 nan nan 14 13 12 12 11 10 14 16 16 16 14 16 15 13 10 11 11 12 10 12 16 18 19 18 17 15 13 12 13 14 15 16 17 18 18 18 18 18
30 30 30 30 31 31 32 31 30 29 28 27 25 25 24 23 21 20 20 19 20 19 20 20 19 16 16 16 15 14 nan nan nan nan nan nan 17 16 15 15 16 13 17 18 20 17 15 17 17 14 12 11 11 13 11 15 19 20 20 20 20 19 18 15 13 13 14 15 15 17 18 19 18 18
31 31 32 33 34 33 32 32 32 31 30 29 29 28 26 25 24 24 24 25 24 22 21 21 20 18 16 14 14 nan nan nan 16 18 18 18 18 19 19 18 16 18 16 21 20 17 15 17 18 15 14 14 12 14 16 14 19 20 20 24 23 22 21 19 17 14 13 14 15 16 18 19 19 19
33 34 34 35 35 34 33 33 33 32 32 33 31 30 28 26 25 25 25 28 27 25 23 21 19 15 13 13 12 nan 12 18 21 23 24 21 20 23 21 19 20 16 19 20 21 nan 16 17 19 17 16 16 16 17 17 17 17 21 24 nan nan nan nan 18 17 16 14 13 14 15 18 20 22 21
35 34 38 38 37 36 34 34 34 35 34 34 32 31 29 27 27 26 27 27 26 24 22 23 22 19 19 19 18 17 21 26 27 27 27 22 24 24 23 21 20 17 21 22 nan nan nan nan 19 20 19 20 20 21 20 19 18 20 20 nan nan nan nan nan nan nan nan 13 12 13 17 21 24 25
40 39 39 42 40 39 38 38 37 37 36 34 32 30 29 28 27 27 28 26 25 25 25 24 24 23 22 21 nan 20 22 26 24 25 25 24 27 26 25 nan nan 22 19 19 nan nan nan nan nan nan 22 25 22 24 20 20 19 21 20 19 nan nan nan nan nan nan 12 12 12 12 16 21 27 25
40 39 39 41 43 42 39 38 38 37 35 32 31 30 29 28 25 27 26 24 25 25 24 23 23 21 21 20 nan 21 23 22 22 22 23 24 26 27 nan nan nan nan nan nan nan nan nan nan nan nan 22 21 22 22 24 21 20 21 21 nan nan nan nan nan nan nan 15 17 19 21 19 21 28 26
37 37 37 38 40 40 39 38 37 34 31 30 30 28 26 26 28 28 26 25 26 26 26 25 24 22 nan nan nan nan nan 20 19 20 21 nan nan nan nan nan nan nan nan nan nan nan nan nan nan nan nan 21 20 21 23 24 24 25 nan nan nan nan nan nan nan nan nan 22 23 26 26 25 27 27
37 38 38 39 41 41 39 38 35 31 29 28 30 26 23 25 28 27 27 27 27 27 26 25 23 22 nan nan nan nan nan nan 18 19 20 22 24 25 nan nan nan nan nan nan nan nan nan nan nan nan nan nan nan nan nan nan nan nan nan nan nan nan nan nan nan nan nan nan 24 25 25 29 29 27
35 37 38 37 39 38 37 37 35 32 30 31 29 24 25 25 26 26 26 27 27 26 25 24 23 nan nan nan nan nan nan nan nan 20 21 23 nan nan nan nan nan nan nan nan nan nan nan nan nan nan nan nan nan nan nan nan nan nan nan nan nan nan nan nan nan nan nan nan nan nan 27 29 30 30
30 32 34 34 33 32 32 33 33 32 31 30 25 25 24 25 26 27 27 26 25 24 23 23 nan nan nan nan nan nan nan nan nan nan 25 nan nan nan nan nan nan nan nan nan nan nan nan nan nan nan nan nan nan nan nan nan nan nan nan nan nan nan nan nan nan nan nan nan nan nan nan nan nan nan
26 26 26 26 28 29 28 27 29 31 29 25 25 24 25 25 27 26 26 26 25 24 23 nan nan nan nan nan nan nan nan nan nan nan 26 nan nan nan nan nan nan nan nan nan nan nan nan nan nan nan nan nan nan nan nan nan nan nan nan nan nan nan nan nan nan nan nan nan nan nan nan nan nan nan
23 23 24 26 28 28 27 28 30 30 30 30 30 28 26 26 25 25 25 24 24 24 nan nan nan nan 25 nan nan 27 nan nan nan nan nan nan nan nan nan nan nan nan nan nan nan nan nan nan nan nan nan nan nan nan nan nan nan nan nan nan nan nan nan nan nan nan nan nan nan nan nan nan nan nan
24 23 23 23 23 23 nan 20 20 23 27 31 30 nan nan nan 24 25 26 25 nan nan nan nan nan nan nan nan nan nan nan nan nan nan nan nan nan nan nan nan nan nan nan nan nan nan nan nan nan nan nan nan nan nan nan nan nan nan nan nan nan nan nan nan nan nan nan nan nan nan nan nan nan nan
24 23 21 22 nan nan nan nan 33 34 35 33 nan nan nan nan nan nan 29 nan nan nan nan nan nan nan nan nan nan nan nan nan nan nan nan nan nan nan nan nan nan nan nan nan nan nan nan nan nan nan nan nan nan nan nan nan nan nan nan nan nan nan nan nan nan nan nan nan nan nan nan nan nan nan
nan nan nan nan nan nan nan nan nan 35 nan nan nan nan nan nan nan nan nan nan nan nan nan nan nan nan nan nan nan nan nan nan nan nan nan nan nan nan nan nan nan nan nan nan nan nan nan nan nan nan nan nan nan nan nan nan nan nan nan nan nan nan nan nan nan nan nan nan nan nan nan nan nan nan
nan nan nan nan nan nan nan nan nan nan nan nan nan nan nan nan nan nan nan nan nan nan nan nan nan nan nan nan nan nan nan nan nan nan nan nan nan nan nan nan nan nan nan nan nan nan nan nan nan nan nan nan nan nan nan nan nan nan nan nan nan nan nan nan nan nan nan nan nan nan nan nan nan nan
nan nan nan nan nan nan nan nan nan nan nan nan nan nan nan nan nan nan nan nan nan nan nan nan nan nan nan nan nan nan nan nan nan nan nan nan nan nan nan nan nan nan nan nan nan nan nan nan nan nan nan nan nan nan nan nan nan nan nan nan nan nan nan nan nan nan nan nan nan nan nan nan nan nan
nan nan nan nan nan nan nan nan nan nan nan nan nan nan nan nan nan nan nan nan nan nan nan nan nan nan nan nan nan nan nan nan nan nan nan nan nan nan nan nan nan nan nan nan nan nan nan nan nan nan nan nan nan nan nan nan nan nan nan nan nan nan nan nan nan nan nan nan nan nan nan nan nan nan
nan nan nan nan nan nan nan nan nan nan nan nan nan nan nan nan nan nan nan nan nan nan nan nan nan nan nan nan nan nan nan nan nan nan nan nan nan nan nan nan nan nan nan nan nan nan nan nan nan nan nan nan nan nan nan nan nan nan nan nan nan nan nan nan nan nan nan nan nan nan nan nan nan nan
nan nan nan nan nan nan nan nan nan nan nan nan nan nan nan nan nan nan nan nan nan nan nan nan nan nan nan nan nan nan nan nan nan nan nan nan nan nan nan nan nan nan nan nan nan nan nan nan nan nan nan nan nan nan nan nan nan nan nan nan nan nan nan nan nan nan nan nan nan nan nan nan nan nan
nan nan nan nan nan nan nan nan nan nan nan nan nan nan nan nan nan nan nan nan nan nan nan nan nan nan nan nan nan nan nan nan nan nan nan nan nan nan nan nan nan nan nan nan nan nan nan nan nan nan nan nan nan nan nan nan nan nan nan nan nan nan nan nan nan nan nan nan nan nan nan nan nan nan
nan nan nan nan nan nan nan nan nan nan nan nan nan nan nan nan nan nan nan nan nan nan nan nan nan nan nan nan nan nan nan nan nan nan nan nan nan nan nan nan nan nan nan nan nan nan nan nan nan nan nan nan nan nan nan nan nan nan nan nan nan nan nan nan nan nan nan nan nan nan nan nan nan nan
nan nan nan nan nan nan nan nan nan nan nan nan nan nan nan nan nan nan nan nan nan nan nan nan nan nan nan nan nan nan nan nan nan nan nan nan nan nan nan nan nan nan nan nan nan nan nan nan nan nan nan nan nan nan nan nan nan nan nan nan nan nan nan nan nan nan nan nan nan nan nan nan nan nan
nan nan nan nan nan nan nan nan nan nan nan nan nan nan nan nan nan nan nan nan nan nan nan nan nan nan nan nan nan nan nan nan nan nan nan nan nan nan nan nan nan nan nan nan nan nan nan nan nan nan nan nan nan nan nan nan nan nan nan nan nan nan nan nan nan nan nan nan nan nan nan nan nan nan
nan nan nan nan nan nan nan nan nan nan nan nan nan nan nan nan nan nan nan nan nan nan nan nan nan nan nan nan nan nan nan nan nan nan nan nan nan nan nan nan nan nan nan nan nan nan nan nan nan nan nan nan nan nan nan nan nan nan nan nan nan nan nan nan nan nan nan nan nan nan nan nan nan nan
nan nan nan nan nan nan nan nan nan nan nan nan nan nan nan nan nan nan nan nan nan nan nan nan nan nan nan nan nan nan nan nan nan nan nan nan nan nan nan nan nan nan nan nan nan nan nan nan nan nan nan nan nan nan nan nan nan nan nan nan nan nan nan nan nan nan nan nan nan nan nan nan nan nan
nan nan nan nan nan nan nan nan nan nan nan nan nan nan nan nan nan nan nan nan nan nan nan nan nan nan nan nan nan nan nan nan nan nan nan nan nan nan nan nan nan nan nan nan nan nan nan nan nan nan nan nan nan nan nan nan nan nan nan nan nan nan nan nan nan nan nan nan nan nan nan nan nan nan
Wind_Direction
199 198 208 245 206 129 231 221 237 276 263 284 262 266 284 291 284 275 266 306 305 303 295 306 346 330 355 21 31 33 34 50 58 30 34 32 26 46 67 68 62 58 351 305 303 9 35 50 59 62 60 58 16 356 5 17 23 22 22 17 13 15 19 21 25 27 29 nan nan 40 41 30 30 33
204 211 211 273 294 271 285 353 254 268 267 244 256 266 290 301 310 308 284 328 333 339 313 328 347 357 31 17 23 8 19 46 40 12 22 28 23 55 66 58 50 51 161 259 274 265 264 325 52 59 56 58 42 8 5 15 18 20 21 18 14 13 16 19 23 26 28 nan nan nan 44 41 31 32
209 200 201 224 235 268 295 241 241 274 297 314 309 304 296 309 308 310 304 301 338 323 328 341 350 354 5 8 3 2 353 5 5 360 5 14 55 72 42 58 45 46 100 119 253 228 237 252 240 62 55 52 54 22 8 11 15 18 19 19 14 13 14 16 21 25 26 27 nan nan nan 42 36 35
209 211 210 223 243 251 265 268 250 258 278 294 319 319 316 314 318 312 314 326 13 329 334 355 2 8 352 357 347 334 325 335 335 338 2 18 43 25 11 27 65 54 75 221 208 215 213 224 228 78 65 61 59 39 12 10 13 15 18 18 13 13 14 16 18 22 24 25 nan nan nan nan 41 37
209 206 209 219 228 267 259 249 254 267 287 281 289 301 307 317 312 312 312 322 331 304 321 331 331 340 323 326 315 300 304 316 322 335 355 357 359 7 357 349 8 55 268 275 179 183 198 204 205 61 74 74 66 52 27 19 13 11 13 16 12 12 12 15 17 19 23 24 nan nan nan nan nan nan
194 200 202 196 204 244 259 255 270 280 284 283 284 293 303 316 313 305 304 314 301 304 290 292 310 320 306 296 292 287 283 320 320 335 355 355 350 351 353 345 341 268 265 268 213 176 197 198 222 141 103 90 78 59 33 26 18 10 6 10 11 10 11 13 17 18 20 22 25 nan nan nan nan nan
205 206 238 154 210 231 257 284 303 298 300 291 285 278 294 305 302 301 309 302 307 311 309 318 299 295 284 291 293 270 302 326 334 342 342 345 351 350 350 345 341 316 283 278 262 205 225 227 175 138 113 101 95 55 28 28 23 12 2 4 7 9 9 nan nan nan nan nan nan nan nan nan nan nan
271 332 308 2 340 231 213 239 279 298 297 289 289 285 303 313 312 300 303 319 317 303 299 290 293 297 283 301 302 306 310 311 320 328 336 334 340 354 346 341 341 340 51 351 300 259 275 233 177 149 129 119 115 66 19 27 23 13 3 360 3 5 7 8 nan nan nan nan nan nan nan nan nan nan
285 271 279 247 251 252 244 240 236 217 203 220 269 295 327 310 303 298 305 315 310 308 312 306 303 297 302 314 305 298 292 305 307 306 306 330 344 341 336 333 337 333 172 283 256 262 245 218 214 183 148 126 115 98 12 18 18 11 2 358 0 2 3 6 9 nan nan nan nan nan nan nan nan nan
264 256 259 268 265 263 262 254 251 247 247 287 269 275 275 287 292 288 289 296 308 313 326 318 295 282 276 275 290 296 285 296 292 295 310 316 312 312 318 325 324 317 325 310 293 293 277 233 218 220 224 222 174 66 17 351 0 2 358 355 358 1 1 2 6 8 nan nan nan nan nan nan nan nan
257 256 257 262 271 277 274 277 280 283 279 276 287 290 290 289 288 289 297 305 302 296 289 291 296 287 292 291 289 285 286 304 307 301 292 294 312 315 317 326 314 313 325 337 293 280 297 272 288 271 243 241 248 255 259 271 285 329 347 350 355 360 360 360 1 4 6 nan nan nan nan nan nan nan
280 279 273 266 266 275 283 288 297 303 304 295 292 298 301 299 294 300 298 283 276 271 272 285 284 289 294 270 297 300 287 279 287 292 301 300 298 294 307 328 322 314 312 296 263 262 254 245 235 239 248 244 235 248 255 247 247 272 330 345 351 354 358 358 358 359 1 4 nan nan nan nan nan nan
271 269 271 269 267 267 278 292 293 295 294 288 282 273 282 288 291 283 275 275 276 275 279 280 289 283 273 285 281 276 289 288 296 301 294 304 302 298 294 297 315 313 306 302 293 286 286 282 275 278 278 273 259 262 260 263 240 236 312 341 348 350 351 354 356 356 357 359 2 4 nan nan nan nan
270 276 272 269 281 286 284 274 269 273 271 279 285 288 292 295 289 286 283 281 281 284 286 294 291 278 280 284 287 293 302 305 302 291 288 286 288 288 295 304 310 308 298 288 289 299 300 295 295 286 282 279 276 289 284 282 267 239 259 336 342 345 346 347 351 354 355 356 358 0 2 nan nan nan
263 263 264 265 265 263 255 254 251 257 259 258 260 267 282 290 287 287 288 287 288 289 294 294 294 297 294 293 296 299 304 305 305 309 300 297 289 287 285 290 291 309 288 296 301 306 301 296 291 296 293 287 286 288 284 249 240 243 252 297 329 338 342 343 346 349 352 353 355 357 360 1 0 nan
270 268 267 265 264 261 263 263 257 252 249 251 257 268 273 276 284 293 292 291 288 290 291 289 297 300 303 303 297 301 300 300 297 301 302 301 297 291 290 297 304 314 293 295 302 307 306 294 292 291 291 293 298 292 276 254 247 249 250 263 293 323 333 338 340 342 344 347 350 353 356 359 359 359
273 270 266 263 261 258 258 259 258 257 255 249 251 263 273 279 285 294 299 299 294 290 289 294 293 301 300 297 301 301 297 291 289 291 290 297 294 298 293 299 298 286 284 288 298 302 297 290 284 286 288 290 294 286 275 264 267 264 262 261 264 281 312 327 331 333 337 341 344 347 351 354 357 358
270 270 269 266 262 259 258 258 256 255 255 255 255 256 258 260 260 266 288 298 295 292 293 292 292 290 294 297 295 292 291 290 292 287 nan nan 294 290 298 301 303 305 287 294 298 294 287 286 282 280 278 280 282 284 275 261 264 256 254 259 262 269 279 297 312 326 334 337 340 343 347 351 354 355
265 265 266 264 263 260 258 258 256 257 258 257 256 257 258 258 259 260 259 270 280 284 287 289 291 290 290 293 293 294 nan nan nan nan nan nan 299 300 297 298 301 296 293 290 289 285 289 291 284 285 284 276 280 284 278 248 250 250 255 259 262 263 265 273 291 314 325 333 338 342 344 346 349 351
263 262 261 261 262 261 258 254 251 254 259 261 259 258 256 255 257 257 256 258 264 274 281 284 285 286 284 283 289 nan nan nan 293 290 290 290 293 291 287 282 286 289 282 278 275 284 287 293 288 291 291 289 285 281 280 253 252 256 257 251 253 258 261 263 271 284 305 322 333 337 339 339 339 342
265 262 260 260 261 261 260 254 251 249 255 261 259 259 257 257 258 252 249 251 258 261 268 273 281 283 281 274 273 nan 280 287 290 290 285 280 288 281 276 283 280 282 281 277 272 nan 287 287 293 292 293 293 298 293 285 280 266 256 253 nan nan nan nan 252 257 268 282 300 317 328 331 331 332 333
265 267 273 264 259 259 258 253 249 246 252 257 257 258 259 259 259 254 250 253 257 258 264 270 266 268 264 262 263 266 263 271 289 287 281 289 284 279 280 280 284 283 280 276 nan nan nan nan 291 291 297 294 300 296 291 285 283 277 275 nan nan nan nan nan nan nan nan 272 290 310 321 324 322 317
265 262 266 266 259 253 251 250 248 245 247 254 253 255 257 259 259 259 254 252 253 253 253 258 257 262 260 268 nan 276 269 275 283 284 285 285 282 280 279 nan nan 274 275 275 nan nan nan nan nan nan 289 294 300 296 289 285 288 290 288 287 nan nan nan nan nan nan 267 264 264 277 301 314 313 309
264 264 264 261 258 254 250 249 249 249 247 251 252 254 255 256 257 258 256 258 260 262 263 264 266 269 271 269 nan 272 274 274 275 272 275 278 283 282 nan nan nan nan nan nan nan nan nan nan nan nan 285 290 292 293 292 290 290 291 287 nan nan nan nan nan nan nan 260 258 252 253 269 296 306 302
268 269 266 262 262 256 248 244 243 245 248 249 252 253 256 256 255 255 257 261 259 265 265 265 264 263 nan nan nan nan nan 267 265 265 268 nan nan nan nan nan nan nan nan nan nan nan nan nan nan nan nan 282 287 283 290 291 290 286 nan nan nan nan nan nan nan nan nan 257 257 258 268 284 306 306
265 267 263 261 259 254 247 239 238 243 251 253 253 255 260 254 251 256 260 262 263 264 264 263 260 259 nan nan nan nan nan nan 262 264 267 272 277 278 nan nan nan nan nan nan nan nan nan nan nan nan nan nan nan nan nan nan nan nan nan nan nan nan nan nan nan nan nan nan 272 269 276 277 291 304
262 258 255 252 245 244 244 236 229 231 238 247 255 256 254 257 260 260 263 263 262 261 262 263 262 nan nan nan nan nan nan nan nan 263 268 271 nan nan nan nan nan nan nan nan nan nan nan nan nan nan nan nan nan nan nan nan nan nan nan nan nan nan nan nan nan nan nan nan nan nan 266 273 275 284
263 260 254 250 242 244 245 237 229 229 237 247 248 252 252 253 258 258 260 261 261 262 263 263 nan nan nan nan nan nan nan nan nan nan 274 nan nan nan nan nan nan nan nan nan nan nan nan nan nan nan nan nan nan nan nan nan nan nan nan nan nan nan nan nan nan nan nan nan nan nan nan nan nan nan
264 262 256 250 246 248 248 242 235 235 239 246 252 253 252 251 255 258 257 258 259 256 255 nan nan nan nan nan nan nan nan nan nan nan 273 nan nan nan nan nan nan nan nan nan nan nan nan nan nan nan nan nan nan nan nan nan nan nan nan nan nan nan nan nan nan nan nan nan nan nan nan nan nan nan
250 251 248 245 244 242 246 249 251 250 250 250 249 247 247 247 249 251 254 256 259 260 nan nan nan nan 267 nan nan 274 nan nan nan nan nan nan nan nan nan nan nan nan nan nan nan nan nan nan nan nan nan nan nan nan nan nan nan nan nan nan nan nan nan nan nan nan nan nan nan nan nan nan nan nan
249 250 250 246 245 246 nan 242 247 249 248 249 249 nan nan nan 247 250 253 258 nan nan nan nan nan nan nan nan nan nan nan nan nan nan nan nan nan nan nan nan nan nan nan nan nan nan nan nan nan nan nan nan nan nan nan nan nan nan nan nan nan nan nan nan nan nan nan nan nan nan nan nan nan nan
253 252 254 254 nan nan nan nan 246 247 249 250 nan nan nan nan nan nan 256 nan nan nan nan nan nan nan nan nan nan nan nan nan nan nan nan nan nan nan nan nan nan nan nan nan nan nan nan nan nan nan nan nan nan nan nan nan nan nan nan nan nan nan nan nan nan nan nan nan nan nan nan nan nan nan
nan nan nan nan nan nan nan nan nan 245 nan nan nan nan nan nan nan nan nan nan nan nan nan nan nan nan nan nan nan nan nan nan nan nan nan nan nan nan nan nan nan nan nan nan nan nan nan nan nan nan nan nan nan nan nan nan nan nan nan nan nan nan nan nan nan nan nan nan nan nan nan nan nan nan
nan nan nan nan nan nan nan nan nan nan nan nan nan nan nan nan nan nan nan nan nan nan nan nan nan nan nan nan nan nan nan nan nan nan nan nan nan nan nan nan nan nan nan nan nan nan nan nan nan nan nan nan nan nan nan nan nan nan nan nan nan nan nan nan nan nan nan nan nan nan nan nan nan nan
nan nan nan nan nan nan nan nan nan nan nan nan nan nan nan nan nan nan nan nan nan nan nan nan nan nan nan nan nan nan nan nan nan nan nan nan nan nan nan nan nan nan nan nan nan nan nan nan nan nan nan nan nan nan nan nan nan nan nan nan nan nan nan nan nan nan nan nan nan nan nan nan nan nan
nan nan nan nan nan nan nan nan nan nan nan nan nan nan nan nan nan nan nan nan nan nan nan nan nan nan nan nan nan nan nan nan nan nan nan nan nan nan nan nan nan nan nan nan nan nan nan nan nan nan nan nan nan nan nan nan nan nan nan nan nan nan nan nan nan nan nan nan nan nan nan nan nan nan
nan nan nan nan nan nan nan nan nan nan nan nan nan nan nan nan nan nan nan nan nan nan nan nan nan nan nan nan nan nan nan nan nan nan nan nan nan nan nan nan nan nan nan nan nan nan nan nan nan nan nan nan nan nan nan nan nan nan nan nan nan nan nan nan nan nan nan nan nan nan nan nan nan nan
nan nan nan nan nan nan nan nan nan nan nan nan nan nan nan nan nan nan nan nan nan nan nan nan nan nan nan nan nan nan nan nan nan nan nan nan nan nan nan nan nan nan nan nan nan nan nan nan nan nan nan nan nan nan nan nan nan nan nan nan nan nan nan nan nan nan nan nan nan nan nan nan nan nan
nan nan nan nan nan nan nan nan nan nan nan nan nan nan nan nan nan nan nan nan nan nan nan nan nan nan nan nan nan nan nan nan nan nan nan nan nan nan nan nan nan nan nan nan nan nan nan nan nan nan nan nan nan nan nan nan nan nan nan nan nan nan nan nan nan nan nan nan nan nan nan nan nan nan
nan nan nan nan nan nan nan nan nan nan nan nan nan nan nan nan nan nan nan nan nan nan nan nan nan nan nan nan nan nan nan nan nan nan nan nan nan nan nan nan nan nan nan nan nan nan nan nan nan nan nan nan nan nan nan nan nan nan nan nan nan nan nan nan nan nan nan nan nan nan nan nan nan nan
nan nan nan nan nan nan nan nan nan nan nan nan nan nan nan nan nan nan nan nan nan nan nan nan nan nan nan nan nan nan nan nan nan nan nan nan nan nan nan nan nan nan nan nan nan nan nan nan nan nan nan nan nan nan nan nan nan nan nan nan nan nan nan nan nan nan nan nan nan nan nan nan nan nan
nan nan nan nan nan nan nan nan nan nan nan nan nan nan nan nan nan nan nan nan nan nan nan nan nan nan nan nan nan nan nan nan nan nan nan nan nan nan nan nan nan nan nan nan nan nan nan nan nan nan nan nan nan nan nan nan nan nan nan nan nan nan nan nan nan nan nan nan nan nan nan nan nan nan
nan nan nan nan nan nan nan nan nan nan nan nan nan nan nan nan nan nan nan nan nan nan nan nan nan nan nan nan nan nan nan nan nan nan nan nan nan nan nan nan nan nan nan nan nan nan nan nan nan nan nan nan nan nan nan nan nan nan nan nan nan nan nan nan nan nan nan nan nan nan nan nan nan nan
nan nan nan nan nan nan nan nan nan nan nan nan nan nan nan nan nan nan nan nan nan nan nan nan nan nan nan nan nan nan nan nan nan nan nan nan nan nan nan nan nan nan nan nan nan nan nan nan nan nan nan nan nan nan nan nan nan nan nan nan nan nan nan nan nan nan nan nan nan nan nan nan nan nan
nan nan nan nan nan nan nan nan nan nan nan nan nan nan nan nan nan nan nan nan nan nan nan nan nan nan nan nan nan nan nan nan nan nan nan nan nan nan nan nan nan nan nan nan nan nan nan nan nan nan nan nan nan nan nan nan nan nan nan nan nan nan nan nan nan nan nan nan nan nan nan nan nan nan